Flight Track Log - Related Links

Times and Time Zones

All times are in EDT time to prevent confusion due to time zone crossing. See the SWA920 flight status page for this flight to view local times or setup timezone preferences in your user account.

Time Position Orientation Groundspeed Altitude Reporting Facility
EDT Latitude Longitude Course Direction KTS MPH feet Rate Location/Type
Mon 10:17:45 PM 39.1500 -76.6500 101° East 151 174 1,500  Level Potomac TRACON
Mon 10:20:07 PM 39.1267 -76.4958 101° East 204 235 7,100 2,584 Climbing Washington Center
Mon 10:21:07 PM 39.1317 -76.3889 87° East 252 290 10,200 2,450 Climbing Washington Center
Mon 10:22:07 PM 39.1469 -76.2528 82° East 323 372 12,000 3,100 Climbing Washington Center
Mon 10:23:07 PM 39.1664 -76.1136 80° East 364 419 16,400 3,400 Climbing Washington Center
Mon 10:24:07 PM 39.1836 -75.9639 82° East 402 463 18,800 2,450 Climbing Washington Center
Mon 10:25:07 PM 39.2361 -75.8275 64° Northeast 420 483 21,300 2,300 Climbing Washington Center
Mon 10:26:07 PM 39.3239 -75.7122 45° Northeast 420 483 23,400 1,900 Climbing Washington Center
Mon 10:27:07 PM 39.4197 -75.5861 45° Northeast 458 527 25,100 1,763 Climbing Washington Center
Mon 10:29:04 PM 39.6275 -75.3208 44° Northeast 492 566 28,600 1,841 Climbing New York Center
Mon 10:30:03 PM 39.7289 -75.1786 47° Northeast 509 586 30,500 1,966 Climbing New York Center
Mon 10:31:03 PM 39.8306 -75.0256 49° Northeast 535 616 32,500 1,835 Climbing New York Center
Mon 10:32:04 PM 39.9314 -74.8856 47° Northeast 541 623 34,200 1,438 Climbing New York Center
Mon 10:33:04 PM 40.0300 -74.7450 47° Northeast 541 623 35,400 1,261 Climbing New York Center
Mon 10:34:03 PM 40.1350 -74.5908 48° Northeast 546 628 36,700 807 Climbing New York Center
Mon 10:35:03 PM 40.2272 -74.4464 50° Northeast 556 640 37,000 149 Climbing New York Center
Mon 10:36:04 PM 40.3258 -74.2911 50° Northeast 562 647 37,000  Level New York Center
Mon 10:37:04 PM 40.4242 -74.1353 50° Northeast 557 641 37,000 -1,944 Level New York Center
Mon 10:39:03 PM 40.6333 -73.8047 50° Northeast 568 654 31,200 -2,916 Descending Boston Center
Mon 10:40:03 PM 40.7183 -73.6642 51° Northeast 561 646 28,300 -2,950 Descending Boston Center
Mon 10:41:03 PM 40.8114 -73.5122 51° Northeast 550 633 25,300 -2,200 Descending Boston Center
Mon 10:42:03 PM 40.9003 -73.3736 50° Northeast 522 601 23,900 -1,050 Descending Boston Center
Mon 10:43:03 PM 40.9950 -73.2267 49° Northeast 494 568 23,200 -450 Descending Boston Center
Mon 10:44:03 PM 41.0628 -73.0789 59° Northeast 478 550 23,000 -100 Descending Boston Center
Mon 10:45:03 PM 41.1342 -72.9361 56° Northeast 464 534 23,000  Level Boston Center
Mon 10:46:03 PM 41.2036 -72.7906 58° Northeast 458 527 23,000  Level Boston Center
Mon 10:47:03 PM 41.2706 -72.6444 59° Northeast 458 527 23,000  Level Boston Center
Mon 10:48:03 PM 41.3353 -72.5119 57° Northeast 463 533 23,000  Level Boston Center
Mon 10:49:03 PM 41.4064 -72.3653 57° Northeast 469 540 23,000 -150 Level Boston Center
Mon 10:50:03 PM 41.4811 -72.2072 58° Northeast 469 540 22,700 -1,400 Descending Boston Center
Mon 10:51:03 PM 41.5308 -72.0686 64° Northeast 464 534 20,200 -2,250 Descending Boston Center
Mon 10:52:03 PM 41.5803 -71.9267 65° Northeast 439 505 18,200 -2,400 Descending Boston Center
Mon 10:53:03 PM 41.6253 -71.7708 69° East 418 481 15,400 -2,600 Descending Boston Center
Mon 10:54:03 PM 41.6619 -71.6481 68° East 394 453 13,000 -2,000 Descending Boston Center
Mon 10:55:03 PM 41.7025 -71.5058 69° East 380 437 11,400 -1,050 Descending Boston Center
Mon 10:56:03 PM 41.7369 -71.3997 66° East 331 381 10,900 -250 Descending Boston Center
Mon 10:57:03 PM 41.7925 -71.3208 47° Northeast 303 349 10,900  Level Boston Center
Mon 10:58:03 PM 41.8564 -71.2528 38° Northeast 283 326 10,900 -650 Level Boston Center
Mon 10:59:03 PM 41.9331 -71.2122 21° North 283 326 9,600 -1,589 Descending Boston Center
Mon 11:00:34 PM 42.0500 -71.1500 22° Northeast 294 338 6,900 -1,629 Descending KA90
Mon 11:01:34 PM 42.1167 -71.1167 20° North 247 284 5,500 -1,368 Descending KA90
Mon 11:02:28 PM 42.1667 -71.1000 14° North 207 238 4,300 -1,263 Descending KA90
Mon 11:03:28 PM 42.2167 -71.0667 26° Northeast 176 203 3,100 -1,100 Descending KA90
Mon 11:04:28 PM 42.2500 -71.0500 20° North 150 173 2,100 -895 Descending KA90
Mon 11:05:22 PM 42.3000 -71.0333 14° North 144 166 1,400 -737 Descending KA90
Mon 11:06:22 PM 42.3333 -71.0167 20° North 126 145 700 -700 Descending KA90
Mon 11:08:00 PM 42.3500 -71.0000 North  Level FlightAware Approximate
Mon 11:15:00 PM 42.3630 -71.0064 North  Level Estimated

Login

Don't have an account? Register now (free) for customized features, flight alerts, and more!